Other Public Products
Issued by NWS Charleston, SC

Current Version | Previous Version | Graphics & Text | Print | Product List | Glossary On
Versions: 1 2 3 4 5 6 7 8 9 10 11 12 13 14 15 16 17 18 19 20 21 22 23 24 25 26 27 28 29 30 31 32 33 34 35 36 37 38 39 40 41 42 43 44 45 46 47 48 49 50
758
FPUS82 KCHS 252012
OPUCHS

TEST...KCHS/KSAV Gateway Observations...TEST
National Weather Service Charleston SC
400 PM EDT FRI MAY 25 2018

NOTE: "fair" indicates few or no clouds below 12,000 feet with no
significant weather and/or obstructions to visibility.

SCZ050-WAZ558-NCZ071-TXZ119-213-PAZ071-DCZ001-FLZ074-172-MI076-
NYZ176-178-MAZ016-IL014-TNZ027-NJZ106-GAZ044-MD014-252100-

...Gateway Observations for Charleston International...

CITY           SKY/WX    TMP DP  RH WIND       PRES   REMARKS
Chas Airport   PTSUNNY   83  70  64 SE14      30.03F
Seattle        PTSUNNY   62  48  60 W6        30.04S
Charlotte      PTSUNNY   77  73  87 W7        30.05F
Dallas DFW     PTSUNNY   81  66  60 E14G23    29.92F
Dallas Love    CLOUDY    77  66  68 E14       29.94F
Philladelphia  PTSUNNY   85  57  38 SW18      29.92F
Wash National  PTSUNNY   84  66  54 S13       29.94F
Baltimore      PTSUNNY   87  60  40 SW8G17    29.93F
Miami          LGT RAIN  75  75 100 E9        29.98F FOG
Detroit        FAIR      86  55  34 S9        29.89F
Newark         PTSUNNY   87  55  33 SW22G29   29.87F
Laguardia      PTSUNNY   88  51  28 SW16      29.87F
J F K          PTSUNNY   76  62  62 S17       29.90F
Boston Logan   PTSUNNY   87  46  24 W22       29.76F
Ft. Lauderdale LGT RAIN  77  75  93 S13       29.97F
Chicago O`Hare PTSUNNY   88  57  34 VRB7      29.83F
Chicago Midway PTSUNNY   88  58  36 SW6       29.83F
Houston Bush   PTSUNNY   87  73  62 SE10      29.91F HX  94
Houston Hobby  PTSUNNY   82  74  76 SE13G23   29.92S THUNDER
Nashville      PTSUNNY   87  65  47 SW8       29.91F
Atlanta        PTSUNNY   82  68  62 SE8       29.99F

$$

GAZ044-118-TXZ119-213-NCZ071-DCZ001-MDZ014-506-PAZ021-071-NJZ106-
NYZ176-178-MAZ106-OHZ011-021-055-MIZ076-KYZ091-ILZ014-INZ047-
MNZ060-ONZ431-252100-

...Gateway Observations for Savannah International...

CITY           SKY/WX    TMP DP  RH WIND       PRES   REMARKS
Savannah Arpt  PTSUNNY   85  69  58 SE16      30.00F
Atlanta        PTSUNNY   82  68  62 SE8       29.99F
Charlotte      PTSUNNY   77  73  87 W7        30.05F
Dallas DFW     PTSUNNY   81  66  60 E14G23    29.92F
Houston Bush   PTSUNNY   87  73  62 SE10      29.91F HX  94
Wash National  PTSUNNY   84  66  54 S13       29.94F
Wash Dulles    FAIR      85  66  53 S9        29.94F
Baltimore      PTSUNNY   87  60  40 SW8G17    29.93F
Philadelphia   PTSUNNY   85  57  38 SW18      29.92F
Newark         PTSUNNY   87  55  33 SW22G29   29.87F
Laguardia      PTSUNNY   88  51  28 SW16      29.87F
J F K          PTSUNNY   76  62  62 S17       29.90F
Boston         PTSUNNY   87  46  24 W22       29.76F
Pittsburg      FAIR      85  56  37 W8        29.94F
Akron          FAIR      84  52  33 SW7       29.95F
Cleveland      FAIR      84  53  34 SW10      29.93F
Cincinnati     FAIR      84  55  36 SW3       29.94F
Columbus       FAIR      85  59  40 MISG      29.93F
Detroit        FAIR      86  55  34 S9        29.89F
Chicago O`Hare PTSUNNY   88  57  34 VRB7      29.83F
Minneapolis    FAIR      88  62  41 W10       29.71F
Indianapolis   FAIR      87  56  34 S10       29.89F
Toronto Canada PTSUNNY   86  55  35 SW16G25   29.80F

$$




USA.gov is the U.S. government's official web portal to all federal, state and local government web resources and services.